Regional Weather Roundup
Issued by NWS

Home | Current Version | Previous Version | Text Only | Print | Product List | Glossary Off
Versions: 1 2 3 4 5 6 7 8 9 10 11 12 13 14 15 16 17 18 19 20 21 22 23 24 25 26 27 28 29 30 31 32 33 34 35 36 37 38 39 40 41 42 43 44 45 46 47 48 49 50

000
ASUS43 KLSX 300807
RWRMO

WEATHER SUMMARY FOR MISSOURI
NATIONAL WEATHER SERVICE SPRINGFIELD MO
300 AM CDT MON MAY 30 2016

NOTE: "FAIR" INDICATES FEW OR NO CLOUDS BELOW 12,000 FEET WITH NO
       SIGNIFICANT WEATHER AND/OR OBSTRUCTIONS TO VISIBILITY.
       CURRENT SKY AND/OR WEATHER CONDITIONS ARE NOT AVAILABLE FOR
       CHILLICOTHE AND FARMINGTON.

MOZ001>031-035>038-043-044-053-054-300900-
...NORTHERN AND WESTERN MISSOURI...

CITY           SKY/WX    TMP DP  RH WIND       PRES   REMARKS
KANSAS CTY INT CLOUDY    65  59  81 S6        30.02F
KANSAS C DTWN  CLEAR     68  62  81 CALM      30.01F
LEE`S SUMMIT   CLEAR     68  61  78 S3        30.03F
ST JOSEPH      CLOUDY    65  61  87 CALM      30.02S
CHILLICOTHE      N/A     65  63  93 CALM      30.03F
KIRKSVILLE     CLOUDY    66  61  84 SW3       30.04F

$$
MOZ066>068-077>081-088>096-101>105-300900-
...SOUTHWEST MISSOURI...

CITY           SKY/WX    TMP DP  RH WIND       PRES   REMARKS
SPRINGFIELD    PTCLDY    67  62  84 S7        30.06F
JOPLIN         PTCLDY    64  63  96 E3        30.05F

$$
MOZ032>034-039>042-045>050-055>058-069>072-300900-
...CENTRAL MISSOURI...

CITY           SKY/WX    TMP DP  RH WIND       PRES   REMARKS
COLUMBIA       CLEAR     68  62  81 S5        30.04F
JEFFERSON CITY CLEAR     64  63  96 CALM      30.04F
ROLLA          CLEAR     64  60  87 S7        30.05F
SEDALIA        CLEAR     67  62  84 S6        30.04F
WHITEMAN AFB   PTCLDY    66  66  99 S3        30.02F
WARRENSBURG    CLEAR     63  61  94 CALM      30.02F

$$
MOZ051-052-059>065-300900-
...EAST CENTRAL MISSOURI...

CITY           SKY/WX    TMP DP  RH WIND       PRES   REMARKS
ST LOUIS INTL  CLOUDY    72  60  66 W3        30.05F
SPIRIT OF STL  MOCLDY    64  62  93 CALM      30.04F
ST CHARLES     CLOUDY    66  65  96 CALM      30.04S

$$
MOZ072>076-082>087-097>100-106>115-300900-
...SOUTH CENTRAL AND SOUTHEAST MISSOURI...

CITY           SKY/WX    TMP DP  RH WIND       PRES   REMARKS
CAPE GIRARDEAU CLEAR     64  63  96 CALM      30.04F
FARMINGTON     PTCLDY    62  60  93 CALM      30.07F
POPLAR BLUFF   CLEAR     67  65  93 N3        30.03F
WEST PLAINS    CLEAR     63  59  87 CALM      30.08F

$$



USA.gov is the U.S. government's official web portal to all federal, state and local government web resources and services.